This is the latest recevied weather packets stored in our database for station/object W9PEM-13. If no packets are shown the sender has not sent any weather packets the latest 10 day(s).
| Time | Temp. | Humidity | Pressure | Rain* | Wind** | Luminosity | Snow |
|---|---|---|---|---|---|---|---|
| 1777453814 | 6.67° C | 76% | 983.4 hPa | 0 mm | - | 0 W/m² | - |
| 1777453214 | 6.67° C | 76% | 983.4 hPa | 0 mm | - | 0 W/m² | - |
| 1777452614 | 7.22° C | 75% | 983.4 hPa | 0 mm | - | 0 W/m² | - |
| 1777452015 | 7.22° C | 75% | 983.4 hPa | 0 mm | - | 0 W/m² | - |
| 1777451414 | 7.22° C | 75% | 983.4 hPa | 0 mm | - | 0 W/m² | - |
| 1777450814 | 7.22° C | 74% | 983.2 hPa | 0 mm | - | 0 W/m² | - |
| 1777450214 | 7.22° C | 74% | 983.2 hPa | 0 mm | - | 0 W/m² | - |
| 1777449615 | 7.22° C | 74% | 983.2 hPa | 0 mm | - | 0 W/m² | - |
| 1777449015 | 7.22° C | 74% | 983 hPa | 0 mm | - | 0 W/m² | - |
| 1777448414 | 7.22° C | 75% | 982.9 hPa | 0 mm | - | 0 W/m² | - |
| 1777447815 | 7.22° C | 75% | 983 hPa | 0 mm | - | 0 W/m² | - |
| 1777447214 | 7.22° C | 76% | 983 hPa | 0 mm | - | 0 W/m² | - |
| 1777446614 | 7.22° C | 77% | 983.2 hPa | 0 mm | - | 0 W/m² | - |
| 1777446015 | 7.22° C | 79% | 983.2 hPa | 0 mm | - | 0 W/m² | - |
| 1777445414 | 7.78° C | 80% | 983.1 hPa | 0 mm | - | 0 W/m² | - |
| 1777444814 | 8.33° C | 79% | 983 hPa | 0 mm | - | 0 W/m² | - |
| 1777444214 | 9.44° C | 78% | 982.9 hPa | 0 mm | - | 0 W/m² | - |
| 1777443614 | 10° C | 75% | 982.8 hPa | 0 mm | - | 0 W/m² | - |
| 1777443014 | 10° C | 78% | 982.5 hPa | 0 mm | - | 0 W/m² | - |
| 1777442414 | 10° C | 78% | 982.4 hPa | 0 mm | - | 0 W/m² | - |
| 1777441814 | 10° C | 81% | 982.6 hPa | 0 mm | - | 0 W/m² | - |
| 1777441214 | 10° C | 83% | 982.7 hPa | 0 mm | - | 0 W/m² | - |
| 1777440614 | 10° C | 79% | 982.9 hPa | 0 mm | - | 0 W/m² | - |
| 1777440014 | 10° C | 78% | 983 hPa | 0 mm | - | 0 W/m² | - |
| 1777439415 | 10° C | 72% | 983 hPa | 0 mm | - | 0 W/m² | - |
* Rain latest hour (hover to see other rain measurements)
** Current wind speed in m/s (hover to see current wind gust speed)